Location: Newark
(44.1667°N, 8.2500°E)
Time: 11:41:18
(UTC+00:00)

Vanguard 2 - Pass Details

Date: 13 December 2019
Orbit: 553 x 2938 km, 32.9° (Epoch: 18 January)

Event Time Altitude Azimuth Distance (km) Brightness Sun altitude
Exits shadow 02:42:03 56° 189° (S) 3,303 10.4 -44.0°
Maximum altitude 02:42:51 57° 181° (S) 3,299 10.4 -43.9°
Drops below altitude 10° 02:59:16 10° 109° (ESE) 5,388 12.4 -41.0°
Sets 03:03:08 0° 106° (ESE) 6,187 12.9 -40.3°
